Location: Newark
(46.9000°N, 28.3500°E)
Time: 17:43:56
(UTC+00:00)

Vanguard 1 Rocket - Pass Details

Date: 31 August 2019
Orbit: 650 x 4226 km, 34.3° (Epoch: 13 October)

Event Time Altitude Azimuth Distance (km) Brightness Sun altitude
Rises 01:56:13 0° 250° (WSW) 2,956 - -14.7°
Reaches altitude 10° 01:59:27 10° 223° (SW) 2,134 - -14.2°
Exits shadow 02:01:04 13° 202° (SSW) 2,000 8.7 -14.0°
Maximum altitude 02:01:50 14° 191° (S) 2,025 8.8 -13.9°
Drops below altitude 10° 02:04:35 10° 161° (SSE) 2,511 9.6 -13.5°
Sets 02:09:05 0° 137° (SE) 3,960 10.9 -12.8°
